Orlando, FL

2:36 PM EST on February 08, 2016 (GMT -0500)
Orlando International

Weather History for KMCO - April, 2013

Change the Weather History Date:

Tuesday, April 9, 2013

  Actual Average Record
Temperature  
Mean Temperature 73 °F 70 °F  
Max Temperature 85 °F 81 °F 96 °F (1908)
Min Temperature 61 °F 59 °F 43 °F (1939)
Degree Days  
Heating Degree Days 0 1  
Month to date heating degree days 0 9  
Since 1 July heating degree days 461 567  
Cooling Degree Days 8 6  
Month to date cooling degree days 56 47  
Year to date cooling degree days 307 269  
Growing Degree Days 22 (Base 50)    
Moisture  
Dew Point 61 °F    
Average Humidity 72    
Maximum Humidity 100    
Minimum Humidity 44    
Precipitation  
Precipitation 0.00 in 0.10 in 3.03 in (1982)
Month to date precipitation 0.34 0.93  
Year to date precipitation 2.52 9.43  
Sea Level Pressure  
Sea Level Pressure 30.14 in    
Wind  
Wind Speed 8 mph (ESE)    
Max Wind Speed 18 mph    
Max Gust Speed 25 mph    
Visibility 10 miles    
Events Fog    
T = Trace of Precipitation, MM = Missing Value Source: NWS Daily Summary

Daily Weather History Graph

Daily Weather History Graph

Search for Another Location

Airport or City:

Trip Planner

Search our weather history database for the weather conditions in past years. The results will help you decide how hot, cold, wet, or windy it might be!

Date:

Astronomy

Apr. 09, 2013 Rise Set
Actual Time 7:06 AM EDT 7:47 PM EDT
Civil Twilight 6:42 AM EDT 8:11 PM EDT
Nautical Twilight 6:14 AM EDT 8:39 PM EDT
Astronomical Twilight 5:45 AM EDT 9:08 PM EDT
Moon 6:25 AM EDT (4/9) 7:21 PM EDT (4/9)
Length of Visible Light 13h 29m
Length of Day
12h 41m
Waning Crescent, 1% of the Moon is Illuminated
Apr 9
Waning Crescent
Apr 10
New
Apr 18
First Quarter
Apr 25
Full
May 2
Last Quarter

Hourly Weather History & Observations

Time (EDT) Temp. Heat Index Dew Point Humidity Pressure Visibility Wind Dir Wind Speed Gust Speed Precip Events Conditions
12:53 AM 64.9 °F - 62.1 °F 90% 30.14 in 10.0 mi Calm Calm - N/A   Clear
1:53 AM 64.0 °F - 61.0 °F 90% 30.13 in 10.0 mi Calm Calm - N/A   Partly Cloudy
2:53 AM 63.0 °F - 61.0 °F 93% 30.11 in 10.0 mi Calm Calm - N/A   Partly Cloudy
3:53 AM 64.0 °F - 62.1 °F 93% 30.10 in 10.0 mi East 3.5 mph - N/A   Partly Cloudy
4:53 AM 63.0 °F - 62.1 °F 97% 30.10 in 10.0 mi East 3.5 mph - N/A   Partly Cloudy
5:53 AM 64.9 °F - 64.0 °F 97% 30.11 in 10.0 mi Calm Calm - N/A   Mostly Cloudy
6:53 AM 64.9 °F - 63.0 °F 93% 30.13 in 10.0 mi East 4.6 mph - N/A Fog Patches of Fog
7:53 AM 66.0 °F - 64.9 °F 96% 30.15 in 10.0 mi Calm Calm - N/A   Scattered Clouds
8:53 AM 72.0 °F - 66.9 °F 84% 30.17 in 10.0 mi East 8.1 mph - N/A   Scattered Clouds
9:53 AM 77.0 °F - 64.9 °F 66% 30.18 in 10.0 mi East 12.7 mph - N/A   Scattered Clouds
10:53 AM 79.0 °F - 63.0 °F 58% 30.19 in 10.0 mi ESE 16.1 mph 19.6 mph N/A   Scattered Clouds
11:53 AM 79.0 °F - 62.1 °F 56% 30.18 in 10.0 mi SE 12.7 mph - N/A   Scattered Clouds
12:53 PM 84.0 °F 84.4 °F 61.0 °F 46% 30.17 in 10.0 mi ESE 10.4 mph - N/A   Mostly Cloudy
1:53 PM 82.0 °F 82.1 °F 59.0 °F 45% 30.15 in 10.0 mi ESE 12.7 mph - N/A   Mostly Cloudy
2:53 PM 82.9 °F 83.3 °F 61.0 °F 47% 30.14 in 10.0 mi ESE 15.0 mph - N/A   Mostly Cloudy
3:53 PM 84.0 °F 84.4 °F 61.0 °F 46% 30.12 in 10.0 mi East 16.1 mph 21.9 mph N/A   Mostly Cloudy
4:53 PM 81.0 °F 81.1 °F 57.9 °F 45% 30.12 in 10.0 mi East 16.1 mph - N/A   Mostly Cloudy
5:53 PM 80.1 °F 80.4 °F 57.0 °F 45% 30.13 in 10.0 mi East 15.0 mph - N/A   Mostly Cloudy
6:53 PM 77.0 °F - 55.9 °F 48% 30.12 in 10.0 mi ESE 13.8 mph - N/A   Scattered Clouds
7:53 PM 73.0 °F - 59.0 °F 61% 30.13 in 10.0 mi ESE 10.4 mph - N/A   Partly Cloudy
8:53 PM 70.0 °F - 59.0 °F 68% 30.15 in 10.0 mi East 6.9 mph - N/A   Partly Cloudy
9:53 PM 66.9 °F - 59.0 °F 76% 30.16 in 10.0 mi East 5.8 mph - N/A   Clear
10:53 PM 66.0 °F - 59.0 °F 78% 30.16 in 10.0 mi East 5.8 mph - N/A   Partly Cloudy
11:53 PM 64.9 °F - 59.0 °F 81% 30.16 in 10.0 mi East 5.8 mph - N/A   Partly Cloudy